Weather History for KHSP - December, 2013

Change the Weather History Date:

Friday, December 20, 2013

  Actual Average Record
Temperature  
Mean Temperature 46 °F -  
Max Temperature 51 °F 34 °F 51 °F (1998)
Min Temperature 42 °F 20 °F -7 °F (2004)
Degree Days  
Heating Degree Days 18    
Moisture  
Dew Point 29 °F    
Average Humidity 48    
Maximum Humidity 82    
Minimum Humidity 30    
Precipitation  
Precipitation 0.00 in - - ()
Sea Level Pressure  
Sea Level Pressure 30.14 in    
Wind  
Wind Speed 15 mph (WSW)    
Max Wind Speed 23 mph    
Max Gust Speed 30 mph    
Visibility 10 miles    
Events      
Averages and records for this station are not official NWS values.
T = Trace of Precipitation, MM = Missing Value Source: NWS Daily Summary

Daily Weather History Graph

Daily Weather History Graph

Search for Another Location

Airport or City:

Trip Planner

Search our weather history database for the weather conditions in past years. The results will help you decide how hot, cold, wet, or windy it might be!

Date:

Astronomy

Dec. 20, 2013 Rise Set
Actual Time 7:31 AM EST 5:03 PM EST
Civil Twilight 7:01 AM EST 5:32 PM EST
Nautical Twilight 6:28 AM EST 6:05 PM EST
Astronomical Twilight 5:56 AM EST 6:37 PM EST
Moon 8:19 PM EST (12/20) 9:26 AM EST (12/20)
Length of Visible Light 10h 30m
Length of Day
9h 31m
Waning Gibbous, 90% of the Moon is Illuminated
Dec 20
Waning Gibbous
Dec 25
Last Quarter
Jan 1
New
Jan 7
First Quarter
Jan 15
Full

Hourly Weather History & Observations

Time (EST) Temp. Windchill Dew Point Humidity Pressure Visibility Wind Dir Wind Speed Gust Speed Precip Events Conditions
12:15 AM 46.4 °F 41.1 °F 23.0 °F 40% 30.16 in 10.0 mi SW 11.5 mph - N/A   Clear
12:35 AM 46.4 °F 41.1 °F 24.8 °F 43% 30.16 in 10.0 mi SW 11.5 mph - N/A   Clear
12:55 AM 46.4 °F 40.7 °F 23.0 °F 40% 30.15 in 10.0 mi SW 12.7 mph - N/A   Clear
1:15 AM 44.6 °F 39.2 °F 24.8 °F 46% 30.16 in 10.0 mi WSW 10.4 mph - N/A   Clear
1:35 AM 42.8 °F 37.0 °F 24.8 °F 49% 30.15 in 10.0 mi WSW 10.4 mph - N/A   Clear
1:55 AM 44.6 °F 39.2 °F 23.0 °F 43% 30.15 in 10.0 mi WSW 10.4 mph - N/A   Unknown
2:15 AM 42.8 °F 36.6 °F 24.8 °F 49% 30.16 in 10.0 mi WSW 11.5 mph - N/A   Clear
2:35 AM 42.8 °F 36.6 °F 24.8 °F 49% 30.16 in 10.0 mi WSW 11.5 mph - N/A   Clear
2:55 AM 44.6 °F 37.8 °F 24.8 °F 46% 30.16 in 10.0 mi WSW 15.0 mph - N/A   Clear
3:15 AM 44.6 °F 38.4 °F 23.0 °F 43% 30.16 in 10.0 mi WSW 12.7 mph - N/A   Clear
3:35 AM 44.6 °F 37.8 °F 23.0 °F 43% 30.16 in 10.0 mi WSW 15.0 mph - N/A   Clear
3:55 AM 44.6 °F 37.8 °F 21.2 °F 39% 30.16 in 10.0 mi WSW 15.0 mph - N/A   Clear
4:15 AM 44.6 °F 36.9 °F 21.2 °F 39% 30.16 in 10.0 mi West 18.4 mph - N/A   Clear
4:35 AM 44.6 °F 37.4 °F 21.2 °F 39% 30.16 in 10.0 mi West 16.1 mph - N/A   Clear
4:55 AM 44.6 °F 37.4 °F 21.2 °F 39% 30.16 in 10.0 mi West 16.1 mph - N/A   Clear
5:15 AM 44.6 °F 37.4 °F 21.2 °F 39% 30.16 in 10.0 mi West 16.1 mph - N/A   Clear
5:35 AM 44.6 °F 37.2 °F 21.2 °F 39% 30.15 in 10.0 mi West 17.3 mph 20.7 mph N/A   Clear
5:55 AM 46.4 °F 39.0 °F 21.2 °F 37% 30.15 in 10.0 mi West 19.6 mph 26.5 mph N/A   Clear
6:15 AM 44.6 °F 37.4 °F 21.2 °F 39% 30.15 in 10.0 mi West 16.1 mph 21.9 mph N/A   Clear
6:55 AM 44.6 °F 36.6 °F 21.2 °F 39% 30.15 in 10.0 mi West 19.6 mph 27.6 mph N/A   Clear
7:15 AM 44.6 °F 36.1 °F 21.2 °F 39% 30.15 in 10.0 mi West 21.9 mph 27.6 mph N/A   Clear
7:35 AM 44.6 °F 36.4 °F 19.4 °F 37% 30.15 in 10.0 mi WSW 20.7 mph - N/A   Clear
7:55 AM 44.6 °F 36.1 °F 19.4 °F 37% 30.15 in 10.0 mi WSW 21.9 mph - N/A   Clear
8:15 AM 46.4 °F 39.0 °F 21.2 °F 37% 30.14 in 10.0 mi WSW 19.6 mph - N/A   Clear
8:55 AM 46.4 °F 38.7 °F 19.4 °F 34% 30.15 in 10.0 mi WSW 20.7 mph - N/A   Clear
9:15 AM 46.4 °F 38.7 °F 19.4 °F 34% 30.16 in 10.0 mi WSW 20.7 mph 25.3 mph N/A   Clear
9:55 AM 48.2 °F - 21.2 °F 34% 30.16 in 10.0 mi WSW 19.6 mph 28.8 mph N/A   Clear
10:15 AM 48.2 °F - 21.2 °F 34% 30.16 in 10.0 mi WSW 18.4 mph 23.0 mph N/A   Clear
10:35 AM 48.2 °F - 21.2 °F 34% 30.16 in 10.0 mi WSW 18.4 mph 25.3 mph N/A   Clear
10:55 AM 48.2 °F - 21.2 °F 34% 30.16 in 10.0 mi WSW 19.6 mph - N/A   Clear
11:15 AM 50.0 °F - 21.2 °F 32% 30.16 in 10.0 mi WSW 20.7 mph 28.8 mph N/A   Scattered Clouds
11:35 AM 48.2 °F - 21.2 °F 34% 30.15 in 10.0 mi WSW 23.0 mph 29.9 mph N/A   Scattered Clouds
11:56 AM 48.2 °F - 21.2 °F 34% 30.14 in 10.0 mi WSW 21.9 mph 27.6 mph N/A   Clear
12:18 PM 48.2 °F - 21.2 °F 34% 30.13 in 10.0 mi West 18.4 mph 26.5 mph N/A   Scattered Clouds
12:35 PM 48.2 °F - 21.2 °F 34% 30.12 in 10.0 mi WSW 17.3 mph 24.2 mph N/A   Scattered Clouds
12:55 PM 50.0 °F - 21.2 °F 32% 30.12 in 10.0 mi WSW 16.1 mph 24.2 mph N/A   Clear
1:15 PM 51.8 °F - 21.2 °F 30% 30.11 in 10.0 mi WSW 16.1 mph 25.3 mph N/A   Clear
1:35 PM 51.8 °F - 24.8 °F 35% 30.10 in 10.0 mi West 20.7 mph 28.8 mph N/A   Clear
1:55 PM 51.8 °F - 26.6 °F 38% 30.09 in 10.0 mi West 18.4 mph 25.3 mph N/A   Clear
2:15 PM 51.8 °F - 28.4 °F 41% 30.09 in 10.0 mi WSW 23.0 mph 28.8 mph N/A   Clear
2:35 PM 51.8 °F - 32.0 °F 47% 30.09 in 10.0 mi WSW 18.4 mph 25.3 mph N/A   Clear
2:55 PM 51.8 °F - 33.8 °F 50% 30.09 in 10.0 mi WSW 17.3 mph 23.0 mph N/A   Clear
3:15 PM 51.8 °F - 35.6 °F 54% 30.10 in 10.0 mi WSW 17.3 mph 26.5 mph N/A   Scattered Clouds
3:35 PM 51.8 °F - 35.6 °F 54% 30.10 in 10.0 mi WSW 10.4 mph 20.7 mph N/A   Scattered Clouds
4:15 PM 50.0 °F - 33.8 °F 54% 30.12 in 10.0 mi SW 9.2 mph - N/A   Clear
4:35 PM 50.0 °F - 33.8 °F 54% 30.12 in 10.0 mi SSW 6.9 mph - N/A   Clear
4:55 PM 48.2 °F - 33.8 °F 58% 30.13 in 10.0 mi SW 6.9 mph - N/A   Scattered Clouds
5:15 PM 50.0 °F - 33.8 °F 54% 30.12 in 10.0 mi WSW 10.4 mph 17.3 mph N/A   Mostly Cloudy
5:35 PM 50.0 °F - 33.8 °F 54% 30.12 in 10.0 mi SW 11.5 mph 19.6 mph N/A   Mostly Cloudy
5:55 PM 50.0 °F - 35.6 °F 58% 30.12 in 10.0 mi WSW 12.7 mph - N/A   Unknown
6:15 PM 50.0 °F - 37.4 °F 62% 30.12 in 10.0 mi WSW 13.8 mph 19.6 mph N/A   Mostly Cloudy
6:35 PM 48.2 °F - 37.4 °F 66% 30.13 in 10.0 mi WSW 17.3 mph 20.7 mph N/A   Mostly Cloudy
6:55 PM 50.0 °F - 39.2 °F 66% 30.13 in 10.0 mi WSW 16.1 mph 21.9 mph N/A   Mostly Cloudy
7:15 PM 50.0 °F - 42.8 °F 76% 30.13 in 10.0 mi WSW 15.0 mph - N/A   Overcast
7:35 PM 50.0 °F - 42.8 °F 76% 30.13 in 10.0 mi WSW 16.1 mph 20.7 mph N/A   Mostly Cloudy
7:55 PM 48.2 °F - 42.8 °F 82% 30.13 in 10.0 mi WSW 15.0 mph 20.7 mph N/A   Mostly Cloudy
8:15 PM 50.0 °F - 42.8 °F 76% 30.13 in 10.0 mi WSW 17.3 mph 23.0 mph N/A   Mostly Cloudy
8:55 PM 51.8 °F - 42.8 °F 71% 30.13 in 10.0 mi WSW 16.1 mph - N/A   Overcast
9:15 PM 51.8 °F - 42.8 °F 71% 30.14 in 10.0 mi WSW 15.0 mph 19.6 mph N/A   Overcast
9:35 PM 51.8 °F - 42.8 °F 71% 30.14 in 10.0 mi WSW 15.0 mph 20.7 mph N/A   Overcast
9:55 PM 50.0 °F - 42.8 °F 76% 30.14 in 10.0 mi WSW 17.3 mph - N/A   Mostly Cloudy
10:15 PM 50.0 °F - 39.2 °F 66% 30.14 in 10.0 mi WSW 17.3 mph - N/A   Scattered Clouds
10:55 PM 50.0 °F - 39.2 °F 66% 30.14 in 10.0 mi WSW 16.1 mph 23.0 mph N/A   Scattered Clouds
11:15 PM 51.8 °F - 39.2 °F 62% 30.13 in 10.0 mi WSW 18.4 mph 21.9 mph N/A   Mostly Cloudy
11:35 PM 50.0 °F - 39.2 °F 66% 30.13 in 10.0 mi WSW 16.1 mph - N/A   Scattered Clouds
11:55 PM 50.0 °F - 39.2 °F 66% 30.13 in 10.0 mi WSW 13.8 mph - N/A   Mostly Cloudy